User: anonymous   Login
Location: Unspecified
(0.0000°N, 0.0000°E)
Time: 19:07:03
(UTC+00:00)
Language:

STARLINK-35040 - Orbit

View from above orbital plane
View from above orbital plane
View from above satellite
View from above satellite

Ground track
Ground track

The orbit is defined by the following mean orbital elements,

1 65480U          26144.68907123 +.00000000 +00000-0 +64538-3 0 00008
2 65480  53.1589 264.8530 0001026  73.0848 287.0267 15.34397510    03
Epoch (UTC): 24 May 2026 16:32:15
Eccentricity: 0.0001026
inclination: 53.1589°
perigee height: 462 km
apogee height: 463 km
right ascension of ascending node: 264.8530°
argument of perigee: 73.0848°
revolutions per day: 15.34397510
mean anomaly at epoch: 287.0267°

The dashed part of the orbit path shows where the satellite is in the earth's shadow,  

DLR